Torna al catalogo

DELTA 1 DEB

AttivoUNKNOWN
NORAD 15205·DEBRIS·🇺🇸 United States

Lanciato Aug 16, 1984 da Cape Canaveral Space Force Station

Loading…

Prossimi Passaggi (prossime 24 ore)

TLE

AggiornatoSource: Space-Track

Epoca: Sep 12, 2026, 23:31 UTC

1 15205U 84088E   26255.98027023  .00000186  00000-0  67914-4 0  9998
2 15205  28.7348 124.1224 1910464 264.0894  73.9946 10.96161237247468

Traccia DELTA 1 DEB in tempo reale con AllMySat

Download on the App Store